Location: ????
(30.1475°N, 31.1342°E)
Time: 02:01:44
(UTC+00:00)

ARIANE 5 R/B - Pass Details

Date: 06 April 2023
Orbit: 748 x 794 km, 98.8° (Epoch: 29 May)

Event Time Altitude Azimuth Distance (km) Brightness Sun altitude
Rises 01:30:20 0° 23° (NNE) 3,291 6.5 -27.5°
Reaches altitude 10° 01:32:49 10° 31° (NNE) 2,362 5.7 -27.0°
Maximum altitude 01:37:41 39° 99° (E) 1,171 3.8 -26.0°
Enters shadow 01:42:13 12° 166° (SSE) 2,238 4.8 -25.2°
